www.pogodaiklimat.ru

Погода и климат >> Архив погоды >> Венгрия >> Залаэгерсег


ПОГОДА в Залаэгерсеге

  • Прогноз погоды в Залаэгерсеге
  • Монитор погоды в Залаэгерсеге

АРХИВ ПОГОДЫ в Залаэгерсеге

Время (UTC), дата Ветер
(напр.,м/с)
 
Видим.   Явления Облачность Т
(С)
Тd
(С)
f
(%)
Тe
(С)
Тes
(С)
Комфортность P
(гПа)
Po
(гПа)
Тmin
(С)
Tmax
(С)
R
(мм)
R24
(мм)
S
(см)
10 16.07 СВ 3
{7}
н/о н/о +24.2 +10.5 42 +25 +25 комфорт 1013.4 985.8
11 16.07 С 2 н/о н/о +24.6 +10.5 41 +26 +26 жарко 1013.2 985.6
12 16.07 СВ 1
{8}
н/о н/о +25.6 +8.1 33 +26 +26 жарко 1012.6 985.1
13 16.07 СВ 2 н/о н/о +26.0 +8.0 32 +26 +26 жарко 1012.2 984.8
14 16.07 З 1 н/о н/о +26.2 +8.2 32 +26 +26 жарко 1011.9 984.5
15 16.07 СЗ 2 н/о н/о +24.1 +11.8 46 +26 +26 жарко 1012.0 984.4
16 16.07 СЗ 1 н/о н/о +26.0 +9.8 36 +27 +27 жарко 1011.4 984.0
17 16.07 З 2 н/о н/о +25.1 +11.7 43 +27 +27 жарко 1011.4 983.9
18 16.07 СВ 1 н/о н/о +23.4 +12.4 50 +26 +26 жарко 1011.7 984.1 +26.3
19 16.07 штиль 0 н/о н/о +20.3 +12.5 61 +22 +22 комфорт 1012.6 984.6
20 16.07 Ю 1 н/о н/о +18.4 +13.5 73 +20 +20 1013.2 985.0
21 16.07 ЮЗ 1 н/о н/о +20.1 +13.3 65 +23 +23 комфорт 1013.4 985.4
22 16.07 СЗ 2 н/о н/о +19.1 +12.6 66 +21 +21 комфорт 1013.9 985.8
23 16.07 С 1 н/о н/о +17.7 +11.7 68 +19 +19 1014.1 985.9
00 17.07 штиль 0 н/о н/о +16.2 +12.0 76 +16 +16 1014.5 986.1
01 17.07 С 2 н/о н/о +14.9 +11.5 80 +15 +15 1014.5 986.0
02 17.07 С 1 н/о н/о +14.2 +11.5 84 +15 +15 1014.6 986.0
03 17.07 С 1 н/о н/о +13.7 +11.2 85 +14 +14 1014.8 986.1
04 17.07 С 2 н/о н/о +14.0 +10.8 81 +13 +13 1014.9 986.3
05 17.07 С 2 н/о н/о +16.2 +10.1 67 +16 +16 1014.7 986.3
06 17.07 С 3
{7}
н/о н/о +17.7 +10.6 63 +18 +18 1014.5 986.2 +13.3
07 17.07 С 4
{7}
н/о н/о +19.2 +10.2 56 +20 +20 1014.3 986.2
08 17.07 СЗ 2 н/о н/о +20.8 +11.4 55 +23 +23 комфорт 1014.1 986.1
09 17.07 С 1 н/о н/о +21.8 +10.6 49 +24 +24 комфорт 1013.7 985.9
10 17.07 Ю 2 н/о н/о +22.9 +11.6 49 +25 +25 комфорт 1013.2 985.5
11 17.07 СЗ 1 н/о н/о +23.7 +10.4 43 +25 +25 комфорт 1012.8 985.2
12 17.07 ЮВ 2 н/о н/о +24.3 +10.9 43 +26 +26 жарко 1012.4 984.8
13 17.07 Ю 2 н/о н/о +25.5 +10.5 39 +26 +26 жарко 1012.0 984.5
14 17.07 Ю 2 н/о н/о +25.7 +12.2 43 +27 +27 жарко 1011.5 984.1
15 17.07 Ю 1 н/о н/о +25.7 +12.2 43 +27 +27 жарко 1011.2 983.8
16 17.07 Ю 1 н/о н/о +25.6 +12.5 44 +27 +27 жарко 1011.0 983.6
17 17.07 Ю 1 н/о н/о +25.3 +12.9 46 +27 +27 жарко 1010.7 983.3
18 17.07 ЮВ 2 н/о н/о +22.8 +14.4 59 +26 +26 жарко 1011.0 983.3 +26.3
19 17.07 ЮВ 2 н/о н/о +19.8 +15.5 76 +23 +23 комфорт 1011.6 983.6
20 17.07 ЮВ 2 н/о н/о +19.7 +14.1 70 +22 +22 комфорт 1012.0 984.0
21 17.07 Ю 1 н/о н/о +19.8 +14.0 69 +23 +23 комфорт 1011.7 983.7
22 17.07 Ю 2 н/о н/о +19.7 +14.1 70 +22 +22 комфорт 1011.7 983.7
23 17.07 Ю 1 н/о н/о +19.0 +13.6 71 +21 +21 комфорт 1012.0 983.9
00 18.07 ЮЗ 3 н/о н/о +19.3 +14.1 72 +21 +21 комфорт 1012.3 984.3
01 18.07 ЮВ 1 н/о н/о +17.3 +14.8 85 +18 +18 1011.9 983.7
02 18.07 ЮЗ 2 н/о н/о +17.3 +14.6 84 +18 +18 1011.6 983.4
03 18.07 З 1 н/о н/о +16.7 +14.5 87 +18 +18 1011.8 983.5
04 18.07 СЗ 1 н/о н/о +16.9 +13.8 82 +18 +18 1012.1 983.8
06 18.07 С 2 н/о н/о +18.3 +13.6 74 +19 +19 1012.4 984.3 +16.3
07 18.07 штиль 0 н/о н/о +17.9 +13.2 74 +18 +18 1013.0 984.8
08 18.07 СЗ 1 н/о н/о +18.6 +13.0 70 +20 +20 1012.9 984.8
09 18.07 СЗ 1 н/о н/о +19.6 +14.0 70 +22 +22 комфорт 1013.2 985.2
10 18.07 н/о н/о +22.1 +13.7 59 1012.8 985.0
11 18.07 Ю 1 н/о н/о +22.3 +12.6 54 +25 +25 комфорт 1012.9 985.1
12 18.07 Ю 1 н/о н/о +25.0 +14.8 53 +28 +28 жарко 1012.2 984.7
13 18.07 ЮВ 1 н/о н/о +25.2 +15.2 54 +28 +28 жарко 1011.8 984.3
14 18.07 ЮЗ 1 н/о н/о +22.0 +16.5 71 +26 +26 душно 1012.6 984.8
15 18.07 Ю 3
{7}
н/о н/о +19.6 +14.8 74 +22 +22 комфорт 1012.3 984.3
16 18.07 Ю 2 н/о н/о +19.2 +15.1 77 +21 +21 комфорт 1012.8 984.7
17 18.07 штиль 0 н/о н/о +19.8 +14.8 73 +22 +22 комфорт 1013.1 985.1
18 18.07 ЮЗ 2 н/о н/о +17.8 +15.4 86 +18 +18 1013.6 985.4 +25.4 0.2
19 18.07 ЮЗ 2 н/о н/о +17.1 +15.1 88 +17 +17 1014.2 985.9
20 18.07 З 2 н/о н/о +16.6 +15.0 90 +17 +17 1014.9 986.5
21 18.07 З 1 н/о н/о +16.6 +13.3 81 +17 +17 1014.8 986.4
22 18.07 ЮЗ 2 н/о н/о +15.5 +14.0 91 +15 +15 1015.0 986.5
23 18.07 Ю 2 н/о н/о +14.6 +13.5 93 +14 +14 1015.3 986.7
00 19.07 ЮЗ 2 н/о н/о +14.5 +13.5 94 +14 +14 1015.4 986.8
01 19.07 Ю 2 н/о н/о +14.2 +12.9 92 +14 +14 1015.4 986.8
02 19.07 Ю 2 н/о н/о +14.0 +13.1 94 +13 +13 1015.5 986.9
03 19.07 ЮЗ 2 н/о н/о +13.5 +12.7 95 +13 +13 1015.8 987.1
04 19.07 ЮЗ 2 н/о н/о +13.3 +12.5 95 +12 +12 1015.9 987.2
05 19.07 Ю 2 н/о н/о +14.6 +13.8 95 +14 +14 1016.0 987.4
06 19.07 ЮЗ 2 н/о н/о +16.5 +15.0 91 +17 +17 1016.0 987.6 +13.1
07 19.07 ЮЗ 2 н/о н/о +19.4 +15.7 79 +22 +22 комфорт 1016.1 988.0
08 19.07 Ю 3 н/о н/о +21.2 +15.3 69 +24 +24 комфорт 1016.1 988.1
09 19.07 Ю 2 н/о н/о +23.8 +15.0 58 +27 +27 жарко 1015.9 988.2
10 19.07 Ю 2 н/о н/о +25.2 +14.9 53 +28 +28 жарко 1015.8 988.2
11 19.07 Ю 2 н/о н/о +26.8 +14.6 47 +29 +29 жарко 1015.6 988.2
12 19.07 Ю 3 н/о н/о +27.6 +14.3 44 +30 +30 жарко 1015.2 987.8
13 19.07 ЮЗ 3 н/о н/о +28.3 +11.4 35 +29 +29 жарко 1014.6 987.3
14 19.07 Ю 3 н/о н/о +28.5 +11.6 35 +29 +29 жарко 1014.3 987.0
15 19.07 ЮЗ 2 н/о н/о +27.3 +12.1 39 +29 +29 жарко 1014.4 987.0
16 19.07 Ю 1 н/о н/о +26.4 +14.8 49 +29 +29 жарко 1014.8 987.3
17 19.07 СЗ 4
{7}
н/о н/о +23.5 +14.2 56 +26 +26 жарко 1015.6 987.9
18 19.07 штиль 0 н/о н/о +22.2 +14.8 63 +26 +26 душно 1015.5 987.6 +28.5
19 19.07 штиль 0 н/о н/о +20.4 +16.0 76 +23 +23 комфорт 1015.9 987.9
20 19.07 штиль 0 н/о н/о +19.2 +16.2 83 +21 +21 комфорт 1016.5 988.3
21 19.07 СЗ 1 н/о н/о +19.5 +15.0 75 +22 +22 комфорт 1016.7 988.6
22 19.07 Ю 1 н/о н/о +18.0 +15.3 84 +19 +19 1016.9 988.6
23 19.07 ЮЗ 1 н/о н/о +18.2 +15.5 84 +20 +20 1017.0 988.7
00 20.07 штиль 0 н/о н/о +17.6 +15.4 87 +18 +18 1016.9 988.6
01 20.07 Ю 2 н/о н/о +17.3 +15.1 87 +18 +18 1016.6 988.2
02 20.07 штиль 0 н/о н/о +16.2 +14.7 91 +16 +16 1016.9 988.4
03 20.07 ЮЗ 2 н/о н/о +16.4 +14.9 91 +16 +16 1016.7 988.3
05 20.07 Ю 1 н/о н/о +18.4 +16.2 87 +20 +20 1016.8 988.5
06 20.07 Ю 3 н/о н/о +19.1 +16.3 84 +21 +21 комфорт 1016.8 988.6 +16.0
07 20.07 ЮЗ 2 н/о н/о +20.2 +17.0 82 +24 +24 комфорт 1017.2 989.1
08 20.07 Ю 2 н/о н/о +22.7 +17.2 71 +28 +28 душно 1017.1 989.2
09 20.07 Ю 3 н/о н/о +26.0 +17.9 61 +30 +30 душно 1016.5 989.0
10 20.07 Ю 4
{7}
н/о н/о +27.8 +15.5 47 +31 +31 душно 1016.3 988.9
11 20.07 Ю 5
{8}
н/о н/о +28.6 +15.2 44 +31 +31 жарко 1016.0 988.7
12 20.07 Ю 4
{8}
н/о н/о +29.0 +14.4 41 +31 +31 жарко 1015.7 988.5
13 20.07 Ю 5
{8}
н/о н/о +29.6 +14.2 39 +32 +32 душно 1015.3 988.1
14 20.07 Ю 4
{8}
н/о н/о +29.6 +15.3 42 +32 +32 душно 1015.0 987.8
15 20.07 Ю 4
{8}
н/о н/о +29.5 +16.7 46 +33 +33 душно 1014.9 987.7
16 20.07 Ю 4
{8}
н/о н/о +28.4 +16.3 48 +32 +32 душно 1014.6 987.3
17 20.07 Ю 3
{7}
н/о н/о +26.9 +16.8 54 +31 +31 душно 1015.0 987.6
18 20.07 ЮВ 3 н/о н/о +25.4 +16.0 56 +29 +29 душно 1015.3 987.7 +30.3
19 20.07 ЮВ 3 н/о н/о +24.4 +15.6 58 +27 +27 жарко 1015.5 987.8
20 20.07 ЮВ 3 н/о н/о +22.8 +15.9 65 +27 +27 душно 1016.1 988.3
21 20.07 Ю 3 н/о н/о +22.9 +16.2 66 +27 +27 душно 1016.2 988.4
22 20.07 ЮВ 2 н/о н/о +22.0 +16.3 70 +26 +26 душно 1016.5 988.6
23 20.07 Ю 3 н/о н/о +21.7 +16.2 71 +25 +25 комфорт 1016.6 988.7
00 21.07 Ю 2 н/о н/о +20.9 +15.9 73 +25 +25 комфорт 1016.5 988.5
01 21.07 Ю 2 н/о н/о +20.4 +15.0 71 +24 +24 комфорт 1016.6 988.5
02 21.07 Ю 2 н/о н/о +19.8 +15.0 74 +22 +22 комфорт 1016.0 987.9
03 21.07 Ю 2 н/о н/о +19.0 +15.5 80 +21 +21 комфорт 1015.9 987.7
04 21.07 ЮЗ 1 н/о н/о +19.2 +15.3 78 +22 +22 комфорт 1016.6 988.4
05 21.07 Ю 1 н/о н/о +20.5 +15.3 72 +24 +24 комфорт 1017.0 988.9
06 21.07 ЮВ 2 н/о н/о +21.5 +16.5 73 +25 +25 комфорт 1016.8 988.8 +18.2
07 21.07 ЮВ 1 н/о н/о +22.3 +16.8 71 +27 +27 душно 1017.1 989.2
08 21.07 СЗ 1 н/о н/о +24.5 +18.2 68 +29 +29 душно 1017.3 989.6
09 21.07 С 1 н/о н/о +27.2 +18.8 60 +32 +32 очень
душно
1017.4 989.9
10 21.07 С 2 н/о н/о +29.6 +18.1 50 +34 +34 очень
душно
1017.2 990.0
11 21.07 С 4
{8}
н/о н/о +31.0 +15.4 39 +33 +33 душно 1017.2 990.1
12 21.07 С 6
{10}
н/о н/о +29.1 +14.9 42 +32 +32 душно 1017.8 990.5
13 21.07
{12}
н/о н/о +28.3 +14.9 44 1018.4 991.0
14 21.07 С 5
{11}
н/о н/о +25.6 +15.3 53 +29 +29 душно 1018.7 991.1
15 21.07 С 6
{10}
н/о н/о +25.8 +13.6 47 +28 +28 жарко 1018.5 990.9
16 21.07 С 4
{9}
н/о н/о +25.4 +13.6 48 +28 +28 жарко 1019.2 991.5
17 21.07 С 3
{7}
н/о н/о +24.5 +14.0 52 +27 +27 жарко 1019.9 992.1
18 21.07 С 1 н/о н/о +23.4 +14.4 57 +27 +27 душно 1020.8 992.9 +31.6
19 21.07 С 2 н/о н/о +22.2 +14.6 62 +26 +26 душно 1021.2 993.2
20 21.07 н/о н/о +21.5 +14.6 65 1021.4 993.3
21 21.07 СЗ 1 н/о н/о +19.9 +14.9 73 +23 +23 комфорт 1021.9 993.6
22 21.07 СЗ 1 н/о н/о +19.0 +15.1 78 +21 +21 комфорт 1022.1 993.8
23 21.07 ЮЗ 1 н/о н/о +18.2 +15.1 82 +20 +20 1022.8 994.4
00 22.07 З 1 н/о н/о +17.3 +14.9 86 +18 +18 1023.0 994.5
01 22.07 ЮЗ 2 н/о н/о +17.6 +15.6 88 +18 +18 1022.9 994.4
02 22.07 Ю 1 н/о н/о +17.2 +16.1 93 +18 +18 1022.9 994.4
03 22.07 ЮЗ 1 н/о н/о +17.1 +16.1 94 +18 +18 1022.8 994.3
04 22.07 СЗ 1 н/о н/о +17.5 +16.5 94 +19 +19 1023.1 994.6
05 22.07 СЗ 2 н/о н/о +19.1 +17.4 90 +21 +21 комфорт 1023.3 994.9
06 22.07 СЗ 1 н/о н/о +21.3 +17.9 81 +25 +25 комфорт 1023.4 995.2 +16.9
07 22.07 С 2 н/о н/о +23.9 +16.7 64 +27 +27 жарко 1023.4 995.5
08 22.07 С 4 н/о н/о +24.8 +16.8 61 +28 +28 жарко 1023.3 995.5
09 22.07
{7}
н/о н/о +26.2 +15.3 51 1023.2 995.5
10 22.07 С 2 н/о н/о +27.7 +14.3 44 +30 +30 жарко 1022.8 995.2
11 22.07 СЗ 1 н/о н/о +26.6 +14.0 46 +29 +29 жарко 1022.8 995.1
12 22.07 СЗ 2 н/о н/о +28.0 +13.5 41 +30 +30 жарко 1022.1 994.6
13 22.07 С 2 н/о н/о +28.7 +13.4 39 +30 +30 жарко 1021.5 994.1
14 22.07 З 2 н/о н/о +28.5 +13.2 39 +30 +30 жарко 1021.1 993.7
15 22.07 СЗ 1 н/о н/о +28.0 +14.3 43 +30 +30 жарко 1021.0 993.5
16 22.07 З 1 н/о н/о +27.5 +15.2 47 +30 +30 жарко 1020.6 993.1
17 22.07 З 1 н/о н/о +27.4 +16.1 50 +31 +31 душно 1020.5 993.0
18 22.07 штиль 0 н/о н/о +24.7 +18.9 70 +30 +30 очень
душно
1020.8 993.0 +29.7
19 22.07 штиль 0 н/о н/о +22.1 +18.5 80 +27 +27 душно 1021.3 993.3
20 22.07 ЮЗ 1 н/о н/о +22.5 +15.1 63 +26 +26 жарко 1021.6 993.6
21 22.07 ЮЗ 1 н/о н/о +22.0 +15.8 68 +26 +26 душно 1021.5 993.5
22 22.07 ЮЗ 2 н/о н/о +21.1 +15.0 68 +24 +24 комфорт 1021.7 993.6
23 22.07 З 1 н/о н/о +20.9 +15.0 69 +25 +25 комфорт 1021.3 993.2
00 23.07 СЗ 2 н/о н/о +20.7 +14.8 69 +24 +24 комфорт 1021.2 993.0
01 23.07 З 2 н/о н/о +21.3 +15.8 71 +25 +25 комфорт 1021.0 992.9
02 23.07 СЗ 1 н/о н/о +18.8 +15.9 83 +21 +21 комфорт 1020.9 992.6
03 23.07 СЗ 1 н/о н/о +19.3 +16.0 81 +22 +22 комфорт 1020.6 992.3
04 23.07 З 1 н/о н/о +19.3 +16.2 82 +22 +22 комфорт 1020.4 992.1
05 23.07 СЗ 1 н/о н/о +20.6 +16.0 75 +25 +25 комфорт 1020.3 992.2
06 23.07 СЗ 1 н/о н/о +22.1 +15.9 68 +26 +26 душно 1020.3 992.3 +18.3
07 23.07 СЗ 2 н/о н/о +25.2 +15.8 56 +28 +28 жарко 1020.1 992.4
08 23.07 СЗ 4
{7}
н/о н/о +26.5 +15.2 50 +29 +29 жарко 1020.1 992.5
09 23.07 СЗ 5
{10}
н/о н/о +27.9 +13.4 41 +30 +30 жарко 1019.8 992.3

 

Местоположение метеостанции Залаэгерсег (Венгрия): широта 46.87 долгота 16.80 высота над уровнем моря 180 м.

В архиве по умолчанию представлена погода в Залаэгерсеге за последнюю неделю. Архивные данные за месяц целиком и за предыдущие месяцы, начиная с января 2011 года, Вы можете получить, выбрав интересующий диапазон дат из раскрывающегося списка и нажав кнопку "Ввод!".


*Определитесь, кто Вы:
робот инопланетянин человек

Внимание! Время в таблицах - всемирное. Для получения местного времени необходимо прибавить поправку, которая равна 1 ч.

Смотрите также архив погоды в соседних городах и на ближайших метеорологических станциях:

Погода в Шармеллеке (Венгрия) (35 км)
Погода в Сентготтхарде (Венгрия) (37 км)
Погода в Сомбатхее (Венгрия) (46 км)
Погода в Надьканиже (Венгрия) (48 км)
Погода в Кляйнциккене (Австрия) (51 км)
Погода в Мурска-Соботе (Словения) (53 км)
Погода в Бад-Радкерсбурге (Австрия) (66 км)
Погода в Бад-Тацмансдорфе (Австрия) (67 км)
Погода в Луцмансбурге (Австрия) (68 км)
Погода в Бад-Глайхенбере (Австрия) (68 км)

Пояснения к столбцам:

Ветер - указаны скорость ветра в м/с - средняя за 10 мин, порывы в срок и между сроками (в фигурных скобках) и направление, откуда дует ветер: С - северный, СВ - северо-восточный, В - восточный, ЮВ - юго-восточный, Ю - южный, ЮЗ - юго-западный, З - западный, СЗ - северо-западный.
Видимость - горизонтальная дальность видимости в метрах или километрах. При видимости от 1 до 10 км при отсутствии осадков обычно наблюдается дымка, при ухудшении видимости до 1 км и менее - туман. В сухую погоду видимость может ухудшаться дымом, пылью или мглою.
Явления - указаны атмосферные явления, наблюдавшиеся в срок или в последний час перед сроком; фигурными скобками обозначены явления, наблюдавшиеся между сроками (за 1-3 часа до срока); квадратными скобками обозначены град или гололедные отложения с указанием их диаметра в мм.
Облачность - указаны через наклонную черту общая и нижняя облачность в баллах и высота нижней границы облаков в метрах; квадратными скобками обозначены формы облаков: Ci - перистые, Cs - перисто-слоистые, Cc - перисто-кучевые, Ac - высококучевые, As - высокослоистые, Sc - слоисто-кучевые, Ns - слоисто-дождевые, Cu - кучевые, Cb - кучево-дождевые. Подробнее классификацию облаков см. в Атласе облаков (PDF).
T - Температура воздуха - температура, измеренная на высоте 2 м над землей.
Td - Температура точки росы - температура, при понижении до которой содержащийся в воздухе водяной пар достигнет насыщения.
f - Относительная влажность воздуха - влажноcть воздуха, измеренная на высоте 2 м над землей.
Te - Эффективная температура - температура, которую ощущает одетый по сезону человек в тени. Характеристика душности погоды. При расчете учитывается влияние влажности воздуха и скорости ветра на теплоощущения человека.
Tes - Эффективная температура на солнце - температура, которую ощущает человек, с поправкой на солнечный нагрев. Характеристика знойности погоды. Зависит от высоты солнца над горизонтом, облачности и скорости ветра. Ночью, в пасмурную погоду, а также при ветре 12 м/с и более поправка равна нулю.
P - Атмосферное давление - приведенное к уровню моря атмосферное давление.
Po - Атмосферное давление - измеренное на уровне метеостанции атмосферное давление.
Tmin - Минимальная температура - минимум температуры воздуха на высоте 2 м над землей.
Tmax - Максимальная температура - максимум температуры воздуха на высоте 2 м над землей.
R - Количество осадков - Количество выпавших осадков за период времени, мм. При наведении курсора мыши на число - период времени, за который выпало указанное количество осадков.
R24 - Количество осадков - Количество выпавших осадков за 24 часа, мм.
S - Снежный покров - Высота снежного покрова, см. При наведении курсора мыши на число - состояние снежного покрова и степень покрытия местности в баллах.